Regional Weather Roundup
Issued by NWS

Home | Current Version | Previous Version | Graphics & Text | Print | Product List | Glossary On
Versions: 1 2 3 4 5 6 7 8 9 10 11 12 13 14 15 16 17 18 19 20 21 22 23 24 25 26 27 28 29 30 31 32 33 34 35 36 37 38 39 40 41 42 43 44 45 46 47 48 49 50
000
ASUS45 KCYS 010410
RWRWY

WYOMING REGIONAL WEATHER ROUNDUP
NATIONAL WEATHER SERVICE CHEYENNE WY
1000 PM MDT SUN AUG 31 2014

NOTE:  "FAIR" INDICATES FEW OR NO CLOUDS BELOW 12,000 FEET
WITH NO SIGNIFICANT WEATHER AND/OR OBSTRUCTIONS TO VISIBILITY.

WYZ001-010500-
YELLOWSTONE NATIONAL PARK

CITY           SKY/WX    TMP DP  RH WIND       PRES   REMARKS
LK YELLOWSTONE   N/A     41  36  82 VRB3      30.17R
W YELLOWSTONE  NOT AVBL

$$
WYZ002>013-054>058-071-098>099-010500-
NORTHERN WYOMING

CITY           SKY/WX    TMP DP  RH WIND       PRES   REMARKS
JACKSON        CLOUDY    46  43  87 N7        30.11R
CODY           PTCLDY    52  48  87 W3        30.00
GREYBULL       PTCLDY    57  50  77 NW8       29.95R
WORLAND        PTCLDY    56  47  71 E3        29.96S
SHERIDAN       MOCLDY    54  45  71 W16       29.96R
BUFFALO        CLOUDY    56  43  61 N7        29.99R
GILLETTE       MOCLDY    55  48  77 W10       29.95R
HULETT         FAIR      50  46  87 MISG      29.94
NEWCASTLE      FAIR      52  50  93 N5        29.94

$$
WYZ014>020-022>026-101>103-010500-
CENTRAL WYOMING

CITY           SKY/WX    TMP DP  RH WIND       PRES   REMARKS
BIG PINEY      CLEAR     44  37  76 N7        30.14R
PINEDALE       CLEAR     43  37  81 NW3       30.14S
DUBOIS         FAIR      43  36  75 NW9       30.10S
LANDER         MOCLDY    58  42  55 W5        30.02R
RIVERTON       MOCLDY    57  40  52 N8        30.03R
CASPER         CLEAR     48  44  86 CALM      30.01R
DOUGLAS        CLEAR     50  46  86 W5        30.00R

$$
WYZ021-027>030-104>119-010500-
SOUTHERN WYOMING

CITY           SKY/WX    TMP DP  RH WIND       PRES   REMARKS
EVANSTON       PTCLDY    51  25  36 SW3       30.16R
KEMMERER       CLEAR     48  32  53 CALM      30.16S
FORT BRIDGER   FAIR      52  30  43 W7        30.17R
ROCK SPRINGS   CLEAR     54  32  43 N9G21     30.12R
DIXON          CLOUDY    50  44  77 NE7       30.13R
RAWLINS        CLEAR     50  37  61 NW8       30.09R
SARATOGA       FAIR      48  37  66 SW8       30.12R
LARAMIE        CLEAR     52  34  50 NW12      30.09R
CHEYENNE       PTCLDY    52  42  69 N6        30.05R
TORRINGTON     CLEAR     53  48  83 W5        29.95R
PINE BLUFFS    FAIR      50  45  81 CALM      30.01R

$$



USA.gov is the U.S. government's official web portal to all federal, state and local government web resources and services.